GFSSW_sfc_temp_276.txt.gz
Temp
60 60 60 60 60 60 61 61 61 61 61 61 62 62 62 62 62 57 54 61 61 66 64 59 59 59 58 55 59 58 47 44 48 50 54 57 57 56 57 58 57 57 55 57 61
59 59 59 60 60 60 60 61 61 61 61 61 61 61 61 62 55 54 64 66 66 65 59 58 57 58 51 53 55 52 44 49 53 50 52 55 54 57 55 53 53 52 54 56 59
59 59 59 59 59 60 60 60 60 60 60 61 61 61 61 59 51 57 65 65 65 63 58 58 58 58 50 52 53 51 46 51 52 52 52 54 53 55 53 50 56 55 53 53 53
59 59 59 59 59 59 60 60 60 60 60 60 60 60 60 53 47 56 65 65 65 60 58 58 58 53 49 49 55 47 53 53 55 53 53 51 52 52 53 56 58 58 57 55 54
58 58 58 58 59 59 60 59 60 60 60 60 60 60 53 46 50 59 64 63 61 59 57 56 53 55 53 53 52 49 50 53 53 52 51 52 51 51 52 57 55 57 56 55 55
58 58 58 58 59 59 59 59 60 59 59 59 60 60 47 42 56 57 57 58 58 57 57 57 53 55 53 55 52 51 51 51 52 53 52 49 48 48 55 58 55 55 54 55 55
58 58 58 58 59 59 59 59 59 59 59 59 60 56 46 48 54 53 56 54 55 55 55 55 56 53 52 48 54 52 47 47 49 51 48 46 47 45 55 54 54 55 53 54 55
58 58 58 58 58 59 59 60 59 59 58 59 60 50 44 54 52 54 53 53 56 56 56 56 56 54 52 52 50 46 45 41 48 48 47 47 44 54 49 50 52 51 50 52 54
58 57 58 58 58 58 59 60 59 58 59 61 48 45 44 57 51 52 49 50 51 53 54 61 55 50 50 44 41 42 38 39 45 49 46 43 42 53 48 46 47 47 49 49 52
58 58 58 58 58 58 60 60 59 57 56 57 55 43 47 46 49 51 49 51 49 48 49 48 47 43 42 43 37 37 37 41 43 46 43 41 42 50 53 46 46 47 47 49 51
57 57 58 58 58 59 54 49 47 46 47 47 47 45 47 48 50 48 51 50 48 45 39 41 37 34 42 44 43 43 41 41 44 45 41 40 43 50 54 46 47 50 51 50 52
56 56 56 57 58 58 50 46 43 44 38 47 47 48 49 49 43 47 52 45 44 38 40 36 32 40 43 43 42 41 39 38 44 44 42 40 41 49 53 51 53 55 55 55 56
55 55 55 56 57 52 46 46 48 45 35 43 47 47 46 49 45 45 48 44 40 38 37 34 38 42 42 37 39 37 38 38 40 42 39 36 38 43 49 49 52 57 58 57 57
54 55 55 55 53 48 46 50 49 45 24 38 41 44 46 46 41 48 47 45 39 37 36 35 38 39 36 37 39 33 39 39 38 36 31 35 30 39 51 53 50 51 50 53 54
53 54 54 54 49 46 50 49 47 42 21 41 40 48 46 41 41 41 46 43 37 37 36 33 33 33 34 36 40 35 37 36 34 32 28 27 28 34 44 48 53 51 49 49 51
53 53 53 49 49 51 51 50 47 32 21 31 40 38 37 39 40 41 41 43 42 37 34 33 35 34 35 34 35 38 35 33 30 28 19 31 33 31 44 48 50 50 49 50 49
53 53 50 49 46 52 50 46 33 29 35 30 30 36 36 35 36 37 35 33 30 22 25 30 31 32 36 32 34 33 29 20 18 14 22 29 29 36 44 48 50 51 53 49 47
52 52 48 48 49 51 47 37 28 33 28 37 35 35 31 35 35 34 32 26 32 30 21 24 24 31 35 34 31 29 29 24 17 19 26 30 27 39 47 50 50 51 51 49 48
52 39 39 43 46 47 41 30 31 34 40 37 37 31 22 32 33 32 29 26 33 33 29 20 28 31 33 32 33 30 25 31 24 16 19 28 33 43 46 44 47 48 47 48 48
41 37 37 45 45 44 33 32 32 41 42 41 34 34 22 22 30 30 29 32 35 35 30 32 24 29 31 32 32 30 33 25 21 15 12 28 28 35 41 44 44 44 45 46 45
37 30 38 46 44 36 28 32 33 42 43 41 39 33 34 30 30 28 31 33 38 33 32 25 28 24 27 24 28 27 25 23 23 24 20 20 30 39 43 45 44 45 46 45 46
33 20 39 43 31 32 30 30 39 35 40 41 39 40 38 36 30 35 33 38 42 38 34 35 29 19 22 26 28 28 29 28 21 21 22 25 31 42 42 42 44 45 47 46 45
29 25 36 38 21 26 31 32 34 34 34 33 35 39 42 38 32 33 33 40 42 39 35 35 28 17 20 22 24 20 28 30 29 26 21 21 33 42 41 40 41 43 43 46 46
29 21 21 31 27 27 25 27 29 36 33 36 34 36 33 34 39 32 33 36 37 38 43 42 29 28 25 24 22 16 17 28 25 17 31 34 36 37 39 42 43 44 43 46 46
29 24 22 10 18 26 27 26 25 25 30 34 31 32 31 26 31 31 35 34 34 39 33 34 25 28 34 31 26 25 18 23 27 34 28 39 35 40 43 43 44 44 46 46 47
25 24 27 18 20 22 22 23 22 25 26 26 27 27 29 28 29 28 31 34 36 30 29 29 28 26 28 34 31 28 30 22 29 33 35 37 34 39 44 43 42 45 45 45 46
32 32 27 25 17 15 19 24 24 26 28 30 26 25 25 29 31 31 32 32 33 31 28 26 26 23 23 30 29 21 27 29 30 30 34 30 38 43 42 44 47 49 48 48 48

GFSSW_sfc_temp_279.txt.gz
Temp
60 60 60 60 60 60 61 61 61 61 61 61 61 61 61 62 61 56 53 61 61 66 63 56 57 56 56 54 56 55 46 44 49 49 53 54 55 57 56 57 56 59 55 54 58
59 59 60 60 60 60 60 60 61 60 60 61 61 61 61 61 52 50 63 66 66 65 55 54 55 55 50 51 53 50 44 50 55 53 51 53 52 53 52 53 54 53 53 54 56
59 59 59 59 60 60 60 60 60 60 60 60 60 60 60 58 50 54 66 66 66 63 56 56 57 55 49 50 51 50 46 52 54 54 51 51 51 52 51 49 55 56 54 52 51
59 59 59 59 59 60 61 60 60 60 60 60 60 60 60 51 45 54 65 65 65 59 57 55 54 52 50 49 53 45 52 53 55 54 52 50 51 50 51 55 55 58 55 52 53
59 58 59 59 59 60 60 60 60 60 59 60 60 60 52 45 49 57 63 62 59 57 56 55 52 52 48 52 53 49 50 53 54 53 51 50 50 50 51 56 55 54 53 53 55
58 58 58 59 59 60 60 60 60 60 59 59 59 59 47 42 55 55 55 56 56 55 56 56 55 55 49 51 49 53 51 49 51 51 49 49 46 46 55 58 55 53 51 52 54
58 58 58 58 58 59 60 60 60 60 59 59 59 55 44 48 53 52 55 52 53 53 52 55 56 54 52 50 51 49 46 49 49 50 48 45 45 44 58 52 53 51 50 52 54
59 58 58 58 58 58 59 60 60 59 58 58 59 47 42 52 50 52 51 51 53 53 52 53 55 53 51 52 50 46 42 39 48 48 46 46 41 51 48 48 51 49 49 51 53
57 57 58 57 57 58 59 59 59 58 59 59 47 42 42 55 48 50 49 49 50 51 51 59 52 48 47 43 42 41 37 38 45 48 43 43 41 52 45 45 46 46 49 50 53
56 56 57 56 56 57 58 59 59 56 55 55 53 41 46 45 48 49 47 49 48 47 48 47 44 40 39 39 35 35 34 39 41 46 41 38 40 51 53 45 46 45 45 47 51
55 55 56 56 56 57 53 48 47 45 45 46 46 45 46 47 49 47 49 48 46 43 38 40 35 32 41 40 39 38 37 38 41 44 40 39 40 49 53 45 44 49 50 50 51
54 55 55 55 56 57 50 45 43 43 37 46 47 46 48 48 42 46 51 44 41 36 38 35 32 39 40 40 40 39 37 38 43 42 39 38 38 46 50 48 52 53 55 55 57
53 53 54 54 54 51 45 45 46 45 34 42 44 44 45 48 44 44 47 42 38 34 34 32 36 40 39 36 36 34 33 34 38 40 38 36 41 44 47 46 50 52 57 58 56
54 53 53 53 50 49 44 48 47 45 23 36 40 43 45 46 40 46 46 44 37 36 33 33 37 38 35 35 37 31 36 37 35 34 29 34 32 40 47 49 49 52 50 53 53
54 53 54 53 45 45 49 50 48 46 25 40 38 47 44 40 40 39 45 41 36 35 35 33 32 33 33 35 38 34 35 35 32 29 27 26 28 34 40 45 50 53 50 49 51
52 52 53 46 43 48 49 49 46 33 25 31 37 35 36 38 38 39 40 42 41 36 34 33 33 34 35 33 34 36 34 32 28 27 16 28 32 42 42 48 48 47 48 50 48
53 53 50 47 38 48 48 44 32 27 35 30 29 34 34 34 35 36 34 32 30 22 25 30 31 32 35 32 33 32 29 18 14 11 19 25 27 38 44 49 48 51 53 50 47
50 50 47 46 44 43 41 36 25 27 31 35 34 34 31 34 34 33 32 27 33 29 21 24 22 30 33 34 32 29 29 23 15 16 24 28 25 35 44 46 48 49 50 50 46
49 41 36 43 43 39 33 25 26 34 35 34 33 29 21 32 33 31 28 27 33 32 29 20 27 30 33 32 33 30 24 29 23 14 17 27 31 40 45 45 44 47 46 48 47
39 37 34 42 44 38 29 27 29 38 40 36 32 33 25 22 29 30 28 33 35 35 32 32 24 28 30 31 31 30 33 25 20 13 12 27 28 33 42 45 43 44 45 45 44
34 30 36 42 43 32 22 25 28 40 41 36 33 32 32 26 28 26 31 35 37 33 33 28 29 23 27 23 27 26 24 22 23 23 19 18 28 37 41 43 46 44 43 43 43
32 22 38 38 24 27 25 29 37 35 39 34 35 37 32 35 29 28 28 34 40 37 32 35 29 19 22 26 27 26 28 27 20 19 20 23 31 41 41 42 41 42 45 42 44
23 28 36 35 17 15 24 27 29 28 32 30 32 34 37 34 30 34 35 38 41 38 35 34 28 21 24 25 23 18 28 30 28 26 19 21 33 39 38 37 39 42 44 46 44
27 19 22 31 26 22 20 21 23 30 28 31 32 31 31 30 33 33 31 34 36 38 44 42 29 27 25 28 26 21 19 28 26 19 32 31 36 35 37 38 39 39 44 46 45
21 17 21 16 20 18 20 23 22 21 28 29 28 25 23 24 27 29 32 35 33 38 35 35 27 29 31 31 27 28 24 25 26 32 26 38 36 38 41 38 38 39 43 44 45
22 16 18 19 22 21 23 20 22 23 23 21 20 22 24 21 22 24 24 28 29 26 29 30 26 28 29 32 33 28 28 28 31 31 33 35 33 39 40 38 40 42 42 42 42
30 30 25 21 13 14 15 20 23 26 27 28 24 22 21 26 26 28 29 29 28 26 28 27 26 26 25 32 30 22 29 30 27 29 33 27 37 42 42 42 36 32 32 32 33

GFSSW_sfc_temp_285.txt.gz
Temp
61 61 61 62 62 62 62 62 62 61 61 61 61 61 61 61 60 54 51 61 60 66 64 58 57 56 56 55 57 56 47 45 51 50 55 58 57 61 61 61 60 62 62 61 56
62 61 62 62 61 61 62 62 62 61 61 61 61 61 60 60 50 49 62 67 67 66 58 57 54 54 50 52 52 50 44 49 55 57 55 57 56 58 58 57 58 59 59 55 55
61 61 61 61 61 62 62 62 61 61 61 61 60 60 60 56 48 52 65 67 66 64 58 58 57 55 49 50 50 49 46 53 54 56 56 55 54 57 55 52 59 59 60 54 53
60 60 60 60 60 61 61 61 61 61 61 61 60 59 59 48 44 52 65 66 66 58 56 55 55 50 47 45 50 45 50 52 54 55 53 52 54 54 52 62 62 62 59 53 53
58 58 58 59 59 59 59 60 60 61 61 61 60 59 48 41 46 55 63 62 56 55 54 52 50 49 45 47 48 45 48 52 52 51 51 51 51 52 51 59 59 58 55 54 55
57 57 57 57 58 58 58 59 60 60 61 61 59 58 43 38 51 54 54 53 52 52 51 52 51 52 49 48 47 48 49 49 50 51 50 49 49 49 55 60 57 55 55 55 55
55 55 56 56 56 57 58 58 59 59 60 60 59 52 41 47 51 50 53 50 51 51 50 52 53 51 50 47 50 48 45 46 48 50 48 47 44 44 57 59 56 56 57 55 55
55 55 55 55 55 56 56 57 58 59 59 58 59 46 42 50 48 49 50 47 49 51 50 52 53 51 48 50 48 44 42 38 48 47 47 49 45 53 56 52 52 52 51 50 53
55 55 55 55 55 55 56 56 57 59 59 59 45 41 41 54 47 49 49 48 48 48 49 57 50 45 45 41 38 38 35 36 43 48 44 44 41 52 52 48 49 49 49 49 52
54 54 54 54 54 55 55 56 57 56 54 54 51 39 45 46 47 48 45 49 45 45 44 43 40 37 36 37 33 33 33 35 37 43 40 39 39 46 52 49 50 52 52 51 50
54 54 54 54 54 56 52 45 45 42 43 43 45 43 46 48 49 46 48 48 45 40 35 37 33 29 34 43 37 36 34 35 38 43 40 38 41 46 52 48 46 51 55 56 55
54 54 54 54 54 53 47 44 41 42 32 44 46 48 52 49 44 45 49 44 40 36 36 33 31 38 36 36 37 35 33 34 37 41 40 38 40 46 49 51 53 55 56 58 60
53 53 53 53 53 45 42 41 48 46 33 39 42 43 44 48 44 45 47 42 38 34 34 35 37 37 38 33 34 33 34 32 35 37 36 34 39 46 45 48 51 55 57 57 58
52 52 52 53 43 40 40 46 47 46 30 35 38 40 42 43 38 44 48 44 37 37 33 35 37 35 33 34 36 33 34 35 34 33 27 31 29 41 45 51 46 49 52 53 54
52 52 52 52 40 36 41 44 44 42 12 36 36 44 40 38 37 37 44 41 36 34 36 34 31 33 33 34 38 34 34 33 33 29 26 25 27 36 39 42 47 50 50 50 49
51 51 51 43 39 40 42 41 40 28 17 29 35 33 34 35 36 37 39 41 40 36 35 33 33 34 35 34 36 34 32 31 27 27 16 26 29 42 42 43 44 46 48 49 49
51 51 47 44 34 41 40 33 25 19 29 24 25 32 32 32 32 33 32 31 29 24 26 31 32 32 35 32 33 33 30 19 15 12 20 23 26 43 44 45 45 47 47 47 47
50 49 43 41 40 38 34 24 15 12 18 33 31 33 28 31 31 31 29 24 32 28 21 24 22 31 34 35 32 30 31 23 15 16 23 25 24 36 40 43 43 43 45 45 46
48 35 33 37 40 37 28 14 9 22 24 23 27 25 18 30 30 27 25 23 30 30 25 19 25 30 33 33 37 30 26 32 23 13 18 26 30 37 42 42 43 44 43 45 45
32 29 30 38 39 35 17 19 21 28 25 25 19 25 19 22 21 23 24 29 31 34 29 30 23 28 30 33 31 32 33 26 21 13 12 27 27 34 43 44 43 42 41 43 45
30 24 32 38 34 20 5 8 23 30 29 22 20 19 22 21 24 23 23 29 32 30 34 28 30 22 27 23 27 28 26 24 25 24 20 17 28 35 36 38 38 37 38 39 40
28 13 33 35 15 -1 5 21 30 27 30 27 26 24 20 21 19 23 24 29 35 30 27 30 26 23 20 24 27 29 33 28 21 19 19 22 26 37 37 38 37 36 38 38 38
25 19 31 30 6 5 12 18 24 25 25 26 23 25 25 21 14 20 20 28 31 27 30 28 25 12 22 24 24 18 26 30 28 26 18 21 29 37 36 35 33 32 33 34 34
26 13 18 18 19 19 12 13 16 27 24 27 25 26 23 20 25 19 20 26 30 30 34 30 27 23 23 26 20 17 20 28 31 24 31 28 32 33 34 33 29 29 30 31 31
18 15 16 12 16 8 14 19 18 18 23 27 22 23 20 12 18 18 22 23 27 31 30 26 19 28 28 29 25 21 20 24 25 32 29 37 34 37 36 31 28 29 29 28 28
21 20 25 16 12 15 11 14 18 20 17 17 15 21 22 16 18 15 20 20 18 24 24 23 18 23 24 31 31 28 29 24 29 31 33 35 35 38 33 30 28 27 27 26 26
23 26 23 21 12 14 12 19 21 24 24 23 21 20 19 23 23 25 26 26 25 21 19 18 21 16 14 25 27 23 29 22 28 32 34 28 35 33 30 26 25 26 26 26 26

GFSSW_sfc_temp_288.txt.gz
Temp
63 63 63 62 62 62 62 63 62 62 62 62 61 61 61 61 61 61 57 68 66 67 66 67 67 66 67 67 68 68 59 56 60 62 66 70 69 77 75 74 71 74 77 72 69
61 61 61 61 61 61 62 62 62 62 62 62 61 61 61 60 58 56 68 67 67 66 67 66 62 62 63 62 64 63 58 60 69 71 68 72 70 73 70 70 69 72 75 67 67
59 60 60 60 60 60 60 61 61 61 62 62 62 61 60 60 55 63 65 67 67 66 67 67 66 63 59 61 62 61 57 66 68 70 69 67 67 71 68 66 72 73 77 71 67
58 58 58 58 59 59 59 59 60 61 61 61 61 60 59 58 53 63 66 67 66 67 66 63 62 58 56 55 62 55 61 64 67 68 64 63 68 64 67 70 78 78 79 76 67
57 57 57 57 57 58 58 59 59 60 60 61 61 59 57 54 59 66 64 65 65 64 63 62 59 59 55 57 58 54 60 62 64 63 62 63 61 64 66 71 75 73 70 72 72
56 56 56 56 57 57 57 58 58 59 59 61 60 59 55 50 64 66 63 60 63 62 61 62 61 63 57 56 55 59 58 60 62 61 61 57 60 62 65 70 71 71 70 72 73
55 55 55 55 56 56 56 57 58 58 59 60 60 58 52 59 64 64 61 61 61 62 59 63 64 60 59 55 60 56 51 58 59 60 59 58 54 56 66 70 70 70 71 71 72
55 54 54 55 55 55 56 57 57 58 59 59 59 56 51 60 63 58 61 60 61 62 61 62 63 59 57 60 57 52 51 48 59 58 59 59 54 69 68 68 66 69 71 71 71
54 54 54 55 55 56 56 56 57 59 60 59 55 52 50 59 54 60 61 58 58 59 60 61 60 56 55 50 49 51 46 48 53 56 53 54 56 65 62 62 63 66 68 69 68
54 54 54 54 55 55 55 55 58 58 58 58 57 47 53 53 56 55 58 58 55 55 53 54 54 50 50 49 41 47 46 49 48 54 50 51 50 59 63 60 61 65 68 69 69
54 54 54 54 54 55 53 56 51 52 50 50 50 50 53 56 56 54 56 54 55 52 46 49 46 42 48 51 53 54 49 49 55 53 49 51 53 58 62 62 61 63 65 67 69
53 53 53 53 54 54 53 44 39 40 33 46 47 48 54 60 50 51 56 50 48 44 47 42 40 51 53 52 50 49 46 47 52 51 47 51 50 57 60 60 61 62 64 66 69
53 52 52 52 53 51 46 44 48 46 32 42 47 48 50 54 48 53 53 51 48 44 42 44 51 50 47 45 42 44 44 46 46 49 50 46 47 55 63 63 64 65 66 67 68
52 52 52 52 47 46 45 48 49 47 29 37 41 45 48 51 44 56 54 52 44 43 45 43 53 45 41 42 44 40 50 46 45 42 40 45 41 54 61 60 57 60 62 64 66
52 52 52 50 44 41 44 49 49 42 17 43 42 52 48 43 43 44 52 50 44 41 43 41 41 41 42 43 46 44 47 45 45 42 41 43 38 52 54 54 59 64 65 67 67
52 52 50 47 46 46 47 47 44 28 17 32 40 35 36 44 44 45 44 49 48 43 42 43 43 45 46 41 45 43 42 40 40 40 30 43 41 47 57 60 62 64 64 62 63
51 51 47 47 39 46 45 41 26 19 32 21 24 31 34 36 40 40 38 38 36 29 31 40 39 41 43 39 40 41 40 31 27 25 29 44 39 47 58 60 61 64 64 63 62
50 48 44 45 46 45 42 32 15 19 20 29 29 33 30 32 31 34 37 34 40 36 33 32 30 38 42 43 39 36 40 34 26 29 37 34 34 47 56 61 58 56 57 59 60
48 43 42 45 45 43 34 19 16 20 26 24 28 24 24 29 27 29 33 34 39 40 30 31 32 39 37 44 46 36 31 45 34 25 31 39 43 47 53 55 57 54 55 56 56
39 37 40 43 43 39 27 21 22 30 29 28 19 24 17 20 21 23 26 30 24 31 32 34 29 34 36 40 41 40 44 32 33 26 25 37 41 45 51 54 46 46 47 49 50
37 31 41 43 42 32 18 20 23 32 32 25 22 20 21 19 21 21 25 31 26 27 31 32 32 31 33 31 36 35 35 34 35 35 31 31 41 46 44 45 42 42 43 44 44
33 25 40 41 26 18 21 22 29 28 32 29 28 26 23 23 20 21 20 23 31 30 22 28 26 27 32 35 35 41 40 39 32 28 33 33 40 45 43 43 43 40 40 41 41
27 27 40 38 18 20 23 22 25 25 26 25 24 28 28 23 16 23 23 32 33 29 22 25 25 21 27 29 30 28 36 38 41 34 33 28 37 44 42 40 40 39 39 39 39
29 20 28 28 27 22 20 20 20 30 27 28 26 27 24 21 26 18 22 29 31 31 34 32 21 19 16 21 26 25 28 34 33 29 34 35 42 40 41 39 38 37 37 37 36
28 23 24 19 21 22 20 22 20 20 27 29 23 24 20 14 17 17 24 25 29 32 30 26 16 20 21 23 27 27 25 28 29 34 31 38 41 45 42 35 33 36 36 35 34
26 24 26 23 20 20 19 19 20 23 23 20 19 23 24 16 18 15 20 21 20 25 23 26 17 20 19 26 29 24 27 29 29 32 37 40 40 37 32 31 29 30 32 31 31
32 32 27 24 22 18 20 21 22 25 26 27 25 22 21 25 27 27 28 28 26 21 20 20 19 17 13 25 24 20 25 26 31 33 34 30 40 40 31 29 29 29 30 28 28

GFSSW_sfc_temp_291.txt.gz
Temp
61 61 61 61 61 61 61 62 62 62 62 62 63 62 61 61 61 65 61 71 72 68 66 72 72 72 71 69 71 72 60 57 61 64 68 79 75 81 85 81 81 82 82 83 79
60 59 60 60 60 60 60 60 60 61 61 62 62 62 61 60 60 61 71 69 68 67 69 68 67 69 66 66 68 61 59 61 71 73 72 77 77 78 75 75 74 78 82 76 76
58 58 58 58 58 59 59 59 59 60 60 61 61 62 61 61 59 68 66 68 67 67 73 73 72 67 62 67 65 64 58 69 72 74 76 73 73 77 73 69 76 76 80 82 75
57 57 57 57 58 58 58 58 59 59 59 60 61 61 60 63 54 69 65 67 66 72 70 68 66 60 59 59 65 58 66 67 69 72 71 68 72 68 72 73 79 81 83 83 78
55 55 56 56 57 57 57 57 58 58 59 60 60 60 60 57 61 72 65 66 69 68 67 66 63 62 58 62 63 60 63 67 69 69 67 69 65 65 69 77 79 80 79 79 79
55 55 55 55 56 57 57 57 58 58 58 59 60 59 58 51 71 73 69 67 69 67 66 67 65 68 62 62 60 65 63 63 66 66 66 62 62 65 68 74 74 76 77 78 77
55 55 55 55 56 56 56 57 57 57 58 59 60 61 55 58 71 72 67 65 68 67 64 68 69 63 63 58 65 62 54 59 61 63 61 65 57 59 69 71 70 73 76 77 78
55 54 54 54 55 55 55 57 57 57 58 59 60 61 52 68 72 66 67 65 67 68 66 67 67 62 60 64 60 55 57 49 64 65 63 60 52 70 77 72 68 70 74 77 79
54 54 54 54 54 55 55 56 57 58 59 60 58 56 52 60 58 65 67 62 63 64 64 65 63 57 60 51 49 55 46 52 57 65 61 57 55 69 74 71 71 72 75 76 77
53 53 53 54 54 54 55 58 59 59 61 62 60 48 56 57 61 62 66 65 59 58 55 55 55 52 53 51 41 48 50 53 53 62 60 56 54 63 67 67 66 68 71 72 74
53 53 53 54 54 54 57 59 53 53 51 52 53 52 57 60 61 58 61 59 59 55 47 51 45 44 50 54 54 54 53 53 60 65 54 54 56 61 67 68 67 68 69 70 72
53 53 53 53 53 54 55 45 40 39 31 47 49 50 56 59 49 57 61 52 50 45 51 47 40 53 57 56 53 51 49 50 56 61 57 53 52 60 64 66 67 67 68 70 72
53 53 53 52 53 54 51 45 52 51 34 43 51 50 51 54 49 52 56 54 50 47 49 45 51 56 51 51 48 50 48 50 49 56 58 51 48 54 63 67 67 68 70 72 71
53 53 52 52 51 51 48 51 52 51 29 40 45 46 48 49 45 56 56 54 49 45 48 48 55 51 51 47 50 41 53 51 48 46 40 54 40 54 62 65 69 69 70 70 71
52 52 51 51 48 45 47 52 52 45 22 40 40 53 49 44 45 49 56 50 42 45 47 44 47 45 43 48 51 44 51 50 48 44 43 46 39 49 61 60 65 69 70 71 72
52 51 51 51 51 49 51 51 47 27 20 25 36 35 37 41 42 44 45 52 50 41 43 43 53 47 49 52 52 52 46 43 44 42 31 43 44 45 54 60 66 72 71 70 70
51 50 50 52 41 50 50 46 29 19 29 23 26 33 34 33 35 36 35 35 34 28 32 39 42 48 46 43 45 47 40 30 26 26 27 47 43 48 60 63 64 66 68 68 68
50 50 50 51 51 49 46 36 19 21 22 32 31 32 27 31 30 32 31 26 30 27 26 25 29 44 48 43 42 40 41 34 24 28 34 46 37 49 62 65 67 64 62 62 64
51 50 48 48 49 48 40 19 17 22 28 26 29 24 24 28 28 29 28 24 25 25 16 20 28 43 43 46 47 41 33 46 34 37 31 41 45 54 57 58 61 57 59 57 55
46 44 44 49 48 46 30 21 23 31 31 30 20 25 16 21 22 24 25 26 23 29 29 25 18 37 40 42 44 42 45 33 35 24 23 34 40 45 53 55 50 50 50 50 50
44 37 44 48 49 35 20 21 25 33 33 26 24 21 23 21 22 21 24 28 30 29 30 25 21 27 35 32 36 38 34 38 37 36 30 29 39 46 46 47 45 44 45 45 45
39 28 45 46 29 29 22 24 30 30 34 30 30 28 23 24 21 21 20 26 32 31 22 26 21 17 23 38 39 35 37 39 30 30 37 36 39 47 46 45 45 42 43 44 44
32 32 46 43 20 21 26 25 29 27 28 27 25 29 29 24 17 23 25 32 34 29 24 23 19 12 19 31 29 24 28 33 35 37 29 28 36 47 44 43 43 41 42 41 41
33 24 32 35 31 25 21 23 22 33 29 30 26 28 25 22 26 19 22 30 32 31 34 31 20 15 10 16 22 17 23 27 26 22 30 33 39 44 43 41 41 40 40 39 39
33 25 27 21 24 25 24 24 22 22 29 30 25 25 22 15 18 18 24 26 29 32 31 26 13 17 20 23 23 22 22 24 23 27 25 33 38 47 49 40 37 39 38 36 35
29 27 29 26 26 24 24 21 22 24 24 21 21 24 25 18 20 17 20 22 20 26 23 25 14 18 12 22 24 21 26 26 28 30 28 34 37 37 36 36 33 33 33 31 31
37 36 30 27 26 23 23 23 24 27 29 29 27 24 23 26 28 29 30 29 28 23 21 20 17 14 9 22 22 15 23 23 25 22 22 23 26 32 33 29 29 30 29 28 28